This is the latest recevied weather packets stored in our database for station/object KC7UNY-13. If no packets are shown the sender has not sent any weather packets the latest 10 day(s).
| Time | Temp. | Humidity | Pressure | Rain* | Wind** | Luminosity | Snow |
|---|---|---|---|---|---|---|---|
| 1788136006 | 107° F | 29% | 756.1 mmHg | 0 in | - | 127 W/m² | - |
| 1788135701 | 105° F | 30% | 756.2 mmHg | 0 in | - | 138 W/m² | - |
| 1788135397 | 105° F | 30% | 756.4 mmHg | 0 in | - | 152 W/m² | - |
| 1788135092 | 105° F | 30% | 756.2 mmHg | 0 in | - | 171 W/m² | - |
| 1788134789 | 108° F | 30% | 756.1 mmHg | 0 in | - | 190 W/m² | - |
| 1788134488 | 107° F | 29% | 756.2 mmHg | 0 in | - | 210 W/m² | - |
| 1788134187 | 106° F | 29% | 756.2 mmHg | 0 in | - | 227 W/m² | - |
| 1788133882 | 106° F | 29% | 756.2 mmHg | 0 in | - | 242 W/m² | - |
| 1788133578 | 107° F | 29% | 756.4 mmHg | 0 in | - | 249 W/m² | - |
| 1788133273 | 107° F | 29% | 756.3 mmHg | 0 in | - | 252 W/m² | - |
| 1788132968 | 106° F | 29% | 756.4 mmHg | 0 in | - | 259 W/m² | - |
| 1788132664 | 107° F | 29% | 756.4 mmHg | 0 in | - | 267 W/m² | - |
| 1788132360 | 106° F | 30% | 756.5 mmHg | 0 in | - | 279 W/m² | - |
| 1788132055 | 105° F | 30% | 756.5 mmHg | 0 in | - | 293 W/m² | - |
| 1788131751 | 105° F | 30% | 756.5 mmHg | 0 in | - | 306 W/m² | - |
| 1788131449 | 106° F | 29% | 756.6 mmHg | 0 in | - | 323 W/m² | - |
| 1788131145 | 105° F | 29% | 756.8 mmHg | 0 in | - | 338 W/m² | - |
| 1788130840 | 107° F | 28% | 756.7 mmHg | 0 in | - | 353 W/m² | - |
| 1788130535 | 106° F | 30% | 756.8 mmHg | 0 in | - | 369 W/m² | - |
| 1788130230 | 106° F | 30% | 756.9 mmHg | 0 in | - | 384 W/m² | - |
| 1788129928 | 105° F | 30% | 757 mmHg | 0 in | - | 397 W/m² | - |
| 1788129625 | 105° F | 29% | 757 mmHg | 0 in | - | 412 W/m² | - |
| 1788129321 | 105° F | 29% | 757.1 mmHg | 0 in | - | 430 W/m² | - |
| 1788129015 | 105° F | 30% | 757.2 mmHg | 0 in | - | 447 W/m² | - |
| 1788128710 | 106° F | 30% | 757.3 mmHg | 0 in | - | 460 W/m² | - |
* Rain latest hour (hover to see other rain measurements)
** Current wind speed in m/s (hover to see current wind gust speed)